CAPE
46 76 61 59 57 43 54 42 32 28 24 7 1 6 5 22 65 19 10 0 0 0 28 1 7 54 0 0 0 0 0 0 0 0 0 0 0 0 0 0 0 0 0 0 72
29 29 56 63 82 76 60 55 57 56 31 25 13 1 3 7 17 2 0 0 0 0 1 21 38 2 0 0 0 0 0 0 0 0 0 0 0 0 0 0 0 0 0 0 460
42 47 54 66 72 73 79 80 89 65 62 41 31 5 6 12 4 0 0 2 8 0 16 0 8 0 0 0 0 0 0 0 0 0 0 0 0 0 0 0 0 0 0 0 249
70 84 86 86 82 93 92 100 107 101 76 61 40 16 10 8 3 0 44 2 37 0 47 55 0 10 3 0 0 0 0 0 0 0 0 0 0 0 0 0 0 0 0 0 0
72 85 91 98 98 104 106 114 118 149 122 69 56 13 6 32 0 0 0 0 45 0 86 51 11 13 9 1 0 0 0 0 0 0 0 0 0 0 0 0 0 0 0 0 0
86 85 85 85 94 103 111 129 152 161 124 135 56 26 17 22 0 0 0 0 0 0 202 64 13 1 0 0 0 0 0 0 0 0 0 0 0 0 0 0 0 0 0 0 0
80 82 80 87 80 78 87 98 143 163 175 177 138 63 45 9 0 0 0 26 0 0 272 103 0 11 0 0 0 0 0 0 0 0 0 0 0 0 0 0 0 0 0 0 0
93 83 105 92 80 70 68 83 115 163 200 197 173 82 4 8 0 0 0 12 56 153 259 149 19 19 2 0 0 0 0 0 0 0 0 0 0 0 0 0 0 0 0 0 0
93 107 95 81 73 74 74 157 201 246 256 235 80 65 8 40 0 0 0 0 174 182 121 210 129 32 28 0 0 2 0 0 0 0 0 0 0 0 0 0 0 0 0 0 0
103 84 103 106 81 79 63 179 142 121 107 142 76 30 0 19 0 0 0 0 0 108 91 127 81 34 42 3 0 1 0 0 0 0 0 0 0 0 0 0 0 0 0 0 0
73 79 58 57 73 60 8 0 0 0 16 0 0 0 0 1 3 12 0 0 28 106 95 56 42 23 0 1 0 0 0 0 0 0 0 0 0 0 0 0 0 0 0 0 0
67 28 32 60 96 103 0 0 0 8 24 0 0 0 0 2 26 6 0 0 6 52 62 5 1 11 35 0 0 0 0 0 0 0 0 0 0 0 0 0 0 0 0 0 0
56 63 47 53 67 13 0 0 4 7 14 0 0 0 1 5 5 9 0 0 18 44 38 19 1 26 21 2 1 0 0 0 0 0 0 0 0 0 0 0 0 0 0 0 0
40 34 58 102 22 0 3 26 21 24 8 0 1 47 14 1 26 1 0 17 37 35 15 2 0 54 26 8 5 0 0 0 0 0 0 0 0 0 0 0 0 0 0 0 0
99 197 230 190 19 5 8 19 21 14 0 1 2 29 27 17 6 2 0 22 28 6 0 1 0 0 0 0 0 0 0 0 0 0 0 0 0 0 0 0 0 0 0 0 0
122 87 40 6 0 19 22 19 30 0 0 10 14 19 15 16 10 0 31 4 0 0 0 0 0 0 0 0 0 0 0 0 0 0 0 0 0 0 0 0 0 0 0 0 0
67 6 6 22 0 2 0 9 0 0 4 0 5 1 3 10 8 6 28 20 7 1 3 0 0 0 0 0 0 0 0 0 0 0 0 0 0 0 0 0 0 0 0 0 0
28 0 0 12 0 0 0 0 0 1 8 9 4 1 5 19 11 15 2 2 0 0 0 0 0 0 0 0 0 0 0 0 0 0 0 0 0 0 0 0 0 0 0 0 0
0 0 7 14 0 0 0 0 1 1 2 2 3 9 34 10 22 2 0 0 0 0 0 0 0 0 0 0 0 0 0 0 0 0 0 0 0 0 0 0 0 0 0 0 0
0 0 0 0 0 0 2 1 9 10 2 0 9 12 32 9 8 4 1 0 0 0 0 0 0 0 0 0 0 0 0 0 0 0 0 0 0 0 0 0 0 0 0 0 0
0 0 0 0 0 0 0 2 3 3 5 2 0 0 0 0 0 0 0 0 0 0 0 0 0 1 0 0 0 0 0 0 0 0 0 0 0 0 0 0 0 0 0 0 0
0 0 0 0 0 1 1 10 5 1 0 0 0 0 0 0 0 0 0 0 0 0 0 0 0 4 0 0 0 0 0 0 0 0 0 0 0 0 0 0 0 0 0 0 0
0 0 0 0 0 0 1 2 1 0 0 0 0 0 0 0 0 0 0 0 0 0 0 0 0 0 2 0 0 0 0 0 0 0 0 0 0 0 0 0 0 0 0 0 0
0 0 0 0 0 3 1 0 0 0 0 0 0 0 0 0 0 0 0 0 0 0 0 0 0 0 0 0 0 0 0 0 0 0 0 0 0 0 0 0 0 0 0 0 0
0 0 2 1 0 1 0 0 0 0 0 0 0 0 0 0 0 0 0 0 0 2 0 0 0 0 0 0 0 0 0 0 0 0 0 0 0 0 0 0 0 0 0 0 0
0 3 0 0 0 0 0 0 0 0 0 0 0 0 0 0 0 0 0 0 0 0 0 0 0 0 0 0 0 0 0 0 0 0 0 0 0 0 0 0 0 0 0 0 0
0 1 7 0 0 0 0 0 0 0 1 0 0 0 0 0 0 0 0 0 0 0 0 0 0 0 0 0 0 0 0 0 0 0 0 0 0 0 0 0 0 0 0 0 0
CIN
0 0 0 0 0 0 0 0 0 -1 0 0 0 0 0 -5 -1 -1 0 0 0 0 -3 -2 -20 -71 0 0 0 0 0 0 0 0 0 0 0 0 0 0 0 0 0 0 -366
0 0 0 0 0 0 0 0 0 0 -1 0 0 0 0 0 -2 0 0 0 0 0 -6 -3 -4 -5 0 0 0 0 0 0 0 0 0 0 0 0 0 0 0 0 0 0 -235
0 0 0 0 0 0 0 0 0 0 0 -1 0 -1 0 -8 -1 0 0 -105 -164 0 -9 0 -21 0 0 0 0 0 0 0 0 0 0 0 0 0 0 0 0 0 0 0 -221
0 0 0 0 0 0 0 0 0 0 0 0 0 0 0 0 -3 0 -18 -8 -73 -21 -7 -3 0 -10 -11 0 0 0 0 0 0 0 0 0 0 0 0 0 0 0 0 0 0
0 0 0 0 0 0 0 0 0 0 0 0 0 0 0 -4 0 0 0 0 -14 0 -16 -7 -11 -11 -3 -6 0 0 0 0 0 0 0 0 0 0 0 0 0 0 0 0 0
0 0 0 0 0 0 0 0 0 0 0 0 -3 0 0 0 -5 0 0 0 0 0 0 -5 -13 -5 -5 0 0 0 0 0 0 0 0 0 0 0 0 0 0 0 0 0 0
0 0 0 0 0 0 0 0 0 0 0 0 0 -1 -1 -1 0 0 0 -51 0 0 0 -10 0 -9 0 0 0 0 0 0 0 0 0 0 0 0 0 0 0 0 0 0 0
0 0 0 0 0 0 0 0 0 0 0 0 0 -4 -7 -4 0 0 0 -8 -45 -12 -3 -32 -18 -23 -26 0 0 0 0 0 0 0 0 0 0 0 0 0 0 0 0 0 0
0 0 0 0 0 0 0 0 0 0 0 0 -5 -9 -1 -9 0 0 0 0 -28 -19 -43 -21 -26 -17 -21 0 0 -11 0 0 0 0 0 0 0 0 0 0 0 0 0 0 0
0 0 0 0 0 0 -3 0 -11 -22 -31 -6 -7 -2 0 -4 0 0 0 0 -4 -12 -3 -1 -5 -2 -2 -14 -1 -4 -1 0 0 0 0 0 0 0 0 0 0 0 0 0 0
0 0 0 0 -12 -12 -4 0 0 0 -17 0 0 0 0 -5 -18 -19 0 0 -6 -5 0 0 0 0 0 -3 0 0 0 0 0 0 0 0 0 0 0 0 0 0 0 0 0
0 0 0 -12 -3 -6 0 0 -3 -14 0 0 0 0 0 0 -1 -28 0 0 -5 -1 -1 0 0 -3 -4 0 0 0 0 0 0 0 0 0 0 0 0 0 0 0 0 0 0
0 -31 -37 -25 -8 -21 0 0 -16 -18 -1 0 0 0 -5 0 -1 -1 0 -2 -3 -1 -5 0 0 -1 0 0 -1 0 0 0 0 0 0 0 0 0 0 0 0 0 0 0 0
0 0 -3 -5 0 0 -2 -8 -14 -1 0 0 -2 -2 -3 0 -14 -16 0 -12 -6 -10 -6 -26 0 0 -1 0 0 0 0 0 0 0 0 0 0 0 0 0 0 0 0 0 0
0 0 0 0 -1 0 0 -9 -6 -2 0 0 -4 -6 -33 0 0 -1 -1 -13 -11 -5 0 0 0 0 0 0 0 0 0 0 0 0 0 0 0 0 0 0 0 0 0 0 0
0 -1 -16 -43 0 -8 -9 -7 -1 0 0 -1 0 -1 0 0 0 0 -1 -41 0 -2 0 0 0 0 0 0 0 0 0 0 0 0 0 0 0 0 0 0 0 0 0 0 0
0 -4 -25 -6 -6 -8 0 -3 0 0 0 -2 -3 0 0 -4 0 -5 0 -2 -2 -2 0 0 0 0 0 0 0 0 0 0 0 0 0 0 0 0 0 0 0 0 0 0 0
-5 -1 0 -1 -1 0 0 0 0 0 0 0 0 0 0 0 0 -2 -17 0 0 0 0 0 0 0 0 0 0 0 0 0 0 0 0 0 0 0 0 0 0 0 0 0 0
0 0 -10 -1 0 0 0 0 0 0 0 0 0 -3 0 -1 0 -3 -1 0 0 0 0 0 0 0 0 0 0 0 0 0 0 0 0 0 0 0 0 0 0 0 0 0 0
0 0 0 0 0 0 0 0 0 0 0 0 0 -1 0 -1 -1 0 -12 0 0 0 0 0 0 0 0 0 0 0 0 0 0 0 0 0 0 0 0 0 0 0 0 0 0
0 0 0 0 -1 0 0 0 0 0 0 0 0 -2 0 0 0 0 0 0 0 0 0 0 0 -2 0 -4 0 0 0 0 0 0 0 0 0 0 0 0 0 0 0 0 0
0 0 0 0 0 0 0 0 0 0 0 0 0 0 0 0 0 0 0 0 0 0 0 0 0 -1 -6 0 0 0 0 0 0 0 0 0 0 0 0 0 0 0 0 0 0
0 0 0 0 0 0 0 0 0 0 0 0 0 0 0 0 0 0 0 0 0 0 0 0 0 0 -7 0 0 0 0 0 0 0 0 0 0 0 0 0 0 0 0 0 0
0 0 0 0 0 0 0 0 0 0 0 0 0 0 0 0 0 0 0 0 0 0 0 0 0 0 0 0 0 0 0 0 0 0 0 0 0 0 0 0 0 0 0 0 0
0 0 0 0 0 0 0 -26 0 0 0 0 0 0 0 0 0 0 0 0 0 -23 0 0 0 0 0 0 0 0 0 0 0 0 0 0 0 0 0 0 0 0 0 0 0
0 0 -1 0 0 0 0 0 0 0 0 -1 0 0 0 0 0 0 0 0 0 0 0 0 0 0 0 0 0 0 0 0 0 0 0 0 0 0 0 0 0 0 0 0 0
0 -2 0 0 0 0 0 0 0 0 -8 0 0 0 0 0 0 0 0 0 0 0 0 0 0 0 0 0 0 0 0 0 0 0 0 0 0 0 0 0 0 0 0 0 0
Wind_Speed
19 18 19 18 19 18 16 16 16 15 18 17 19 19 19 19 16 6 16 11 12 23 11 5 9 4 3 2 3 4 2 5 8 7 4 1 3 1 0 2 3 5 1 5 9
18 21 20 21 19 19 19 17 17 17 16 19 18 19 19 20 16 13 17 19 21 15 13 9 10 9 4 5 4 4 4 9 6 6 4 2 3 1 2 5 3 1 5 6 10
20 19 20 20 19 18 19 17 18 18 18 14 18 19 18 16 5 9 23 30 24 20 10 6 9 8 6 3 5 5 5 4 4 3 3 4 1 1 1 3 5 1 5 4 1
20 21 21 20 19 19 19 20 19 19 18 17 15 16 17 10 8 2 5 5 27 15 11 7 8 10 7 8 5 4 6 3 4 2 2 3 1 1 4 7 3 3 1 3 4
21 21 21 21 20 20 20 20 19 20 19 17 14 14 9 10 11 5 10 11 14 18 17 13 8 8 11 11 5 6 2 6 6 6 3 2 5 6 7 9 5 6 1 3 3
21 21 19 20 20 20 20 20 20 20 19 18 15 14 10 19 4 8 9 5 11 19 17 15 9 5 6 5 9 6 9 8 4 4 3 4 5 6 5 4 6 6 8 6 5
21 21 21 20 20 19 19 18 18 18 17 18 16 10 11 18 8 4 7 4 12 18 16 13 6 8 7 3 6 4 4 2 7 5 5 4 8 10 9 7 9 9 9 8 8
23 22 20 19 18 18 19 19 19 19 19 17 15 8 10 4 12 13 7 5 9 12 9 10 7 7 4 3 4 9 2 2 3 8 5 8 8 4 7 8 13 11 7 8 11
20 20 19 19 18 19 20 21 21 20 18 15 6 5 8 4 13 11 7 4 6 6 7 11 10 5 4 6 3 7 5 5 4 7 5 9 0 3 2 3 9 10 11 8 9
21 21 19 19 19 19 18 20 20 12 5 1 1 2 6 6 4 4 6 4 3 8 5 9 10 6 9 9 12 9 8 4 9 3 3 4 7 9 9 7 9 9 10 10 9
20 18 19 17 18 17 9 5 5 4 2 6 7 5 7 7 3 7 6 4 4 5 8 10 7 15 20 12 5 7 5 4 3 2 0 5 5 11 11 6 7 10 12 12 12
22 22 21 19 19 15 3 2 4 2 7 10 11 14 15 11 4 4 7 7 7 7 6 5 5 9 12 7 7 8 7 4 1 1 2 5 9 15 14 8 12 13 13 10 8
25 24 23 22 19 6 5 4 5 8 3 4 6 3 5 7 5 13 9 4 4 9 8 6 7 9 5 10 3 3 5 3 2 2 2 6 7 6 2 4 4 5 6 6 9
26 25 25 25 9 5 3 2 4 2 3 4 3 4 5 6 6 13 8 4 3 8 6 4 8 15 16 6 9 2 4 4 4 3 3 3 6 7 4 8 5 6 9 9 11
30 29 24 17 3 4 4 5 1 2 1 1 3 4 4 8 12 10 3 0 6 6 6 1 8 12 13 9 8 4 5 5 4 4 2 3 3 9 2 4 6 8 6 7 7
29 18 13 4 2 1 6 5 3 3 4 2 4 2 2 11 6 10 6 1 4 7 10 3 3 3 3 6 4 10 6 6 5 2 3 2 3 6 1 2 4 4 6 7 8
24 17 6 2 1 4 3 2 4 1 1 3 3 3 2 5 12 10 7 5 4 5 4 6 4 3 5 9 4 4 5 3 6 5 4 2 1 9 6 4 1 2 6 7 7
21 12 6 5 2 3 2 4 4 3 5 1 4 6 4 12 9 5 8 4 5 5 5 4 1 1 1 4 7 2 4 5 5 2 2 3 6 5 4 2 5 2 5 4 8
12 5 3 5 3 3 2 2 2 4 2 3 4 3 7 8 6 7 3 4 3 2 5 5 4 1 2 3 2 3 4 2 7 3 3 4 7 6 3 1 4 7 7 8 7
2 4 3 4 5 3 1 2 3 3 2 4 3 3 5 6 5 4 3 1 6 3 0 2 6 3 2 3 7 4 7 3 4 2 3 4 5 4 2 3 7 10 9 9 7
3 3 3 3 2 3 3 4 4 4 6 4 3 9 8 5 4 3 3 3 3 2 6 4 5 0 3 1 5 2 1 5 4 3 4 1 5 6 7 6 3 6 6 6 8
2 4 3 3 3 2 3 6 3 4 6 3 8 7 4 5 5 4 4 2 2 4 4 2 4 3 1 1 2 4 5 4 5 3 1 2 7 3 6 4 7 8 8 7 6
3 2 3 2 5 5 7 4 2 6 5 4 4 5 3 4 5 4 4 2 4 4 5 4 2 4 1 1 1 3 4 5 5 4 5 5 6 3 3 7 7 7 6 6 7
2 5 5 3 1 3 5 6 4 1 5 5 5 7 6 7 5 4 3 3 2 3 7 6 3 5 6 4 4 3 5 5 6 4 4 6 7 7 7 9 11 11 3 6 6
3 2 1 5 6 8 8 7 8 8 6 9 6 5 4 3 3 4 3 3 5 6 4 4 3 2 4 2 3 4 4 8 6 6 6 4 6 8 9 12 12 8 3 5 6
3 3 3 4 7 7 9 7 8 7 5 5 6 4 4 4 0 6 7 3 3 3 3 3 1 2 3 2 6 5 7 8 9 7 10 9 19 18 16 10 7 2 4 5 4
3 2 2 5 5 2 3 4 6 3 7 5 3 6 12 6 1 5 5 4 5 6 3 4 4 3 4 4 3 4 8 12 6 5 8 8 12 8 9 8 4 3 2 4 5
Wind_Direction
327 315 314 315 312 308 305 306 307 307 309 316 316 311 319 308 292 235 243 230 211 246 281 209 203 187 95 224 147 135 106 192 196 174 213 127 173 280 55 288 311 209 159 298 134
322 319 318 316 312 309 310 306 302 305 303 304 308 309 313 324 302 231 235 230 233 231 233 208 186 149 172 188 197 167 176 207 198 182 184 134 158 306 347 349 292 357 3 42 141
318 319 316 314 313 310 304 299 294 294 295 293 298 308 309 324 312 243 245 229 223 222 231 195 167 146 175 164 198 185 206 175 235 177 145 151 260 216 122 286 228 349 327 54 98
319 317 316 312 311 304 301 298 298 289 290 289 292 300 306 302 233 225 187 182 211 205 204 190 159 170 164 190 192 181 205 185 254 251 183 192 205 274 208 232 192 148 53 6 148
323 320 318 313 309 304 299 296 297 291 286 288 289 298 310 254 225 276 309 322 190 200 197 189 158 162 188 189 153 200 196 203 243 272 233 202 227 223 241 248 262 290 252 269 317
325 317 320 318 313 307 304 300 298 294 301 290 290 285 266 254 263 302 297 317 174 196 193 184 175 157 159 194 180 197 195 243 247 236 251 223 240 168 251 248 246 251 264 243 233
323 324 323 315 313 311 307 301 294 292 287 282 277 271 252 242 290 313 332 216 194 194 183 178 181 160 135 137 191 173 123 200 240 188 238 176 265 235 230 249 268 260 240 262 245
329 328 320 317 316 312 310 303 293 291 285 285 273 281 257 263 249 268 287 265 201 199 188 170 186 167 157 166 72 171 63 165 253 170 224 147 253 258 216 207 250 257 235 237 259
325 324 322 321 318 315 313 304 294 286 280 271 270 187 263 274 234 255 177 280 178 172 203 175 154 183 136 131 127 195 181 174 305 192 168 195 36 280 332 259 266 269 265 231 240
328 333 325 317 313 308 317 311 293 302 305 276 218 311 261 236 184 222 176 222 155 144 175 188 202 151 196 182 197 167 187 172 203 219 184 251 283 281 280 271 246 274 273 274 263
327 327 319 315 313 314 335 348 8 351 306 198 203 240 309 225 144 180 149 151 133 162 185 194 191 192 194 202 142 132 129 152 209 252 266 244 257 280 271 271 252 254 264 265 260
327 325 321 317 312 315 102 200 216 116 280 254 253 247 263 323 229 194 151 160 173 185 168 107 157 213 192 136 111 121 125 194 307 347 195 319 288 264 260 239 235 238 251 259 268
325 321 318 312 309 307 180 223 141 143 253 275 221 223 184 223 274 182 175 171 144 197 181 193 200 155 149 107 97 52 134 171 168 21 64 326 288 284 320 298 292 258 266 302 289
324 317 311 306 301 160 171 338 123 137 294 240 229 171 151 263 221 151 171 170 143 184 131 98 143 168 160 153 164 123 204 152 128 102 228 6 289 296 342 321 357 12 8 344 319
321 314 313 323 201 26 209 166 274 173 309 225 49 122 145 233 119 165 147 58 141 149 143 96 145 145 148 160 154 168 131 120 101 100 60 350 98 271 335 55 48 32 9 324 332
334 340 341 21 44 254 143 153 164 59 262 141 100 109 51 211 166 162 137 62 131 90 63 105 76 54 90 75 122 145 84 57 58 102 37 276 149 286 70 10 8 3 345 340 356
346 359 9 340 330 84 107 113 44 204 269 81 99 200 279 152 115 146 141 107 96 113 85 42 17 11 88 83 38 89 83 0 8 20 217 331 129 246 292 292 231 110 337 343 358
346 352 354 4 23 121 70 46 63 309 18 82 157 75 217 121 100 79 101 106 348 89 93 140 135 243 95 132 163 60 138 147 192 181 274 359 236 254 302 36 118 236 287 341 9
351 324 18 352 13 355 356 23 324 341 54 19 62 242 98 77 100 67 114 132 170 44 111 117 36 57 72 122 101 165 67 160 107 28 43 234 285 320 149 64 359 352 7 355 344
20 335 300 318 348 355 29 302 312 338 2 58 248 43 103 92 91 124 102 25 110 40 112 153 94 32 79 86 35 106 142 85 2 117 265 272 283 216 185 43 345 352 348 332 330
49 2 275 331 4 44 10 354 331 287 206 231 63 91 90 106 86 65 93 5 64 96 79 114 87 298 99 56 147 76 39 44 102 101 168 282 262 200 176 176 326 318 310 298 315
28 9 301 16 35 323 354 342 296 308 203 8 69 74 79 81 68 72 101 99 132 139 70 56 113 108 124 84 174 165 172 141 118 231 136 163 274 307 183 191 30 321 310 337 349
7 283 310 5 37 351 322 323 195 5 354 43 79 73 73 76 99 85 83 6 144 92 143 170 58 98 31 83 35 202 176 126 107 86 200 139 263 350 307 311 292 282 314 347 331
41 16 324 19 249 305 357 331 27 36 42 41 75 58 61 36 22 123 92 37 196 88 88 90 94 145 184 201 144 176 174 174 135 119 187 228 290 295 284 306 305 318 353 340 356
39 29 329 347 339 331 358 354 26 16 22 26 32 54 126 104 70 83 85 95 38 117 59 88 96 136 234 204 170 186 182 185 187 175 174 246 222 266 283 290 292 308 9 354 12
39 3 331 297 313 330 5 352 25 359 45 7 74 33 54 108 47 172 130 120 173 41 84 20 149 81 308 297 213 232 215 195 214 230 256 257 284 279 277 277 277 115 28 350 340
334 314 323 308 333 18 334 315 333 0 22 57 30 64 48 345 328 99 84 84 131 127 111 85 114 64 276 332 302 288 215 197 187 200 200 208 235 285 298 308 336 39 19 324 358